Flag Weather past 2 weeks in Vadsø, Norway

Now
34 °F

Light rain. Passing clouds.


Feels Like: 25 °F
Forecast: 29 / 41 °F
Wind: 13 mph from Southwest

Location: Vadso

Current Time: Nov 26, 2014 at 1:44:08 AM

Latest Report: Nov 26, 2014 at 12:50 AM


Visibility: N/A

Pressure: 29.89 "Hg

Humidity: 93%

Dew point: 32 °F

Location of VadsøLocation

Historic Weather in Vadsø — Graph

°F

Vadsø temperature yesterday

Maximum temperature yesterday: 34 °F (at 7:50 PM)
Minimum temperature yesterday: 25 °F (at 6:50 AM)
Average temperature yesterday: 29 °F

Past Weeks' High & Low Weather Summary

 TemperatureHumidityPressure
High41 °F (Nov 19, 4:50 AM)100% (Nov 11, 12:50 AM)30.54 "Hg (Nov 11, 12:50 AM)
Low18 °F (Nov 15, 6:20 AM)2% (Nov 11, 12:50 PM)29.80 "Hg (Nov 10, 11:50 PM)
Average30 °F83%30.13 "Hg
* Reported Nov 10 11:50 PM — Nov 25 11:50 PM, Vadsø, Weather by CustomWeather, © 2014

Note: Actual official high and low records may vary slightly from our data, if they occured in-between our weather recording intervals... More about our weather records

Advertising

Vadsø weather history for previous 24 hours

 ConditionsComfort  
Time TempWeatherWind HumidityBarometerVisibility
11:50 PM
Nov 25
34 °FPassing clouds.17 mph93%29.89 "HgN/A
10:50 PM34 °FBroken clouds.21 mph93%29.92 "HgN/A
9:50 PM34 °FPassing clouds.12 mph87%29.92 "HgN/A
8:50 PM34 °FPassing clouds.12 mph87%29.92 "HgN/A
7:50 PM34 °FPassing clouds.8 mph87%29.92 "HgN/A
6:50 PM32 °FPartly cloudy.9 mph93%29.92 "HgN/A
5:50 PM32 °FPartly cloudy.12 mph93%29.92 "HgN/A
4:50 PM32 °FPartly sunny.13 mph87%29.92 "HgN/A
3:50 PM32 °FPartly sunny.8 mph87%29.95 "HgN/A
2:50 PM30 °FPartly sunny.9 mph93%29.95 "HgN/A
1:50 PM28 °FPartly sunny.2 mph93%29.98 "HgN/A
12:50 PM27 °FPartly sunny.3 mph93%29.98 "HgN/A
11:50 AM27 °FPartly sunny.6 mph93%30.01 "HgN/A
10:50 AM27 °FPartly sunny.10 mph93%30.01 "HgN/A
9:50 AM25 °FPartly sunny.10 mph93%30.01 "HgN/A
8:50 AM25 °FScattered clouds.9 mph86%30.01 "HgN/A
7:50 AM25 °FPassing clouds.9 mph86%30.01 "HgN/A
6:50 AM25 °FPassing clouds.7 mph93%30.01 "HgN/A
5:50 AM27 °FPassing clouds.7 mph86%30.04 "HgN/A
4:50 AM27 °FPassing clouds.8 mph86%30.04 "HgN/A
Weather by CustomWeather, © 2014

See weather overviewHow to use our weather pages